Cape Town, South Africa

12:29 PM SAST on August 20, 2017 (GMT +0200)
Cape Town

Weather History for FACT - February, 2014

Change the Weather History Date:

Wednesday, February 26, 2014

  Actual Average Record
Temperature  
Mean Temperature 80 °F -  
Max Temperature 93 °F 76 °F 93 °F (2014)
Min Temperature 68 °F 57 °F 60 °F (2016)
Cooling Degree Days 16    
Growing Degree Days 30 (Base 50)    
Moisture  
Dew Point 60 °F    
Average Humidity 54    
Maximum Humidity 69    
Minimum Humidity 26    
Precipitation  
Precipitation 0.00 in 0.03 in - ()
Sea Level Pressure  
Sea Level Pressure 29.81 in    
Wind  
Wind Speed 8 mph ()    
Max Wind Speed 15 mph    
Max Gust Speed -    
Visibility 10.2 miles    
Events      
Averages and records for this station are not official NWS values.
T = Trace of Precipitation, MM = Missing Value Source: Averaged Metar Reports

Daily Weather History Graph

Daily Weather History Graph

Search for Another Location

Airport or City:

Trip Planner

Search our weather history database for the weather conditions in past years. The results will help you decide how hot, cold, wet, or windy it might be!

Date:

Astronomy

Feb. 26, 2014 Rise Set
Actual Time 6:30 AM SAST 7:25 PM SAST
Civil Twilight 6:05 AM SAST 7:51 PM SAST
Nautical Twilight 5:34 AM SAST 8:21 PM SAST
Astronomical Twilight 5:03 AM SAST 8:52 PM SAST
Moon 3:06 AM SAST (2/26) 5:06 PM SAST (2/26)
Length of Visible Light 13h 46m
Length of Day
12h 55m
Waning Crescent, 12% of the Moon is Illuminated
Feb 26
Waning Crescent
Mar 1
New
Mar 8
First Quarter
Mar 16
Full
Mar 24
Last Quarter

Hourly Weather History & Observations

Time (SAST) Temp. Heat Index Dew Point Humidity Pressure Visibility Wind Dir Wind Speed Gust Speed Precip Events Conditions
12:00 AM 69.8 °F - 59.0 °F 68% 29.89 in 6.2 mi SE 9.2 mph - N/A   Partly Cloudy
1:00 AM 69.8 °F - 59.0 °F 68% 29.89 in 6.2 mi SE 13.8 mph - N/A   Partly Cloudy
2:00 AM 71 °F - 58 °F 55% 29.88 in 19 mi SW 6.9 mph - -   Scattered Clouds
2:00 AM 71.6 °F - 59.0 °F 64% 29.86 in 6.2 mi SW 6.9 mph - N/A   Partly Cloudy
3:00 AM 71.6 °F - 59.0 °F 64% 29.86 in 6.2 mi SSW 6.9 mph - N/A   Partly Cloudy
4:00 AM 69.8 °F - 59.0 °F 68% 29.86 in 6.2 mi South 5.8 mph - N/A   Partly Cloudy
5:00 AM 69 °F - 58 °F 60% 29.85 in 12 mi SSW 5.8 mph - -   Scattered Clouds
5:00 AM 69.8 °F - 59.0 °F 68% 29.83 in 6.2 mi SSW 6.9 mph - N/A   Partly Cloudy
6:00 AM 69.8 °F - 59.0 °F 68% 29.83 in 6.2 mi SSW 4.6 mph - N/A   Partly Cloudy
7:00 AM 69.8 °F - 59.0 °F 68% 29.86 in - SW 9.2 mph - N/A   Clear
8:00 AM 72 °F - 60 °F 56% 29.87 in 25 mi WSW 8.1 mph - -  
8:00 AM 71.6 °F - 60.8 °F 69% 29.86 in - WSW 9.2 mph - N/A   Clear
9:00 AM 75.2 °F - 60.8 °F 61% 29.86 in - WSW 8.1 mph - N/A   Clear
10:00 AM 80.6 °F 81.5 °F 60.8 °F 51% 29.86 in - SSW 9.2 mph - N/A   Clear
11:00 AM 84 °F - 62 °F 37% 29.85 in 25 mi SSW 8.1 mph - -  
11:00 AM 84.2 °F 83.8 °F 59.0 °F 42% 29.83 in - SSW 8.1 mph - N/A   Clear
12:00 PM 89.6 °F 88.9 °F 59.0 °F 36% 29.83 in - South 8.1 mph - N/A   Clear
1:00 PM 93.2 °F 93.3 °F 60.8 °F 34% 29.80 in - South 8.1 mph - N/A   Clear
2:00 PM 91 °F - 60 °F 26% 29.80 in 25 mi South 10.4 mph - -  
2:00 PM 91.4 °F 90.7 °F 59.0 °F 34% 29.80 in - South 10.4 mph - N/A   Clear
3:00 PM 91.4 °F 91.4 °F 60.8 °F 36% 29.77 in - South 13.8 mph - N/A   Clear
4:00 PM 91.4 °F 91.4 °F 60.8 °F 36% 29.77 in - South 15.0 mph - N/A   Clear
5:00 PM 88 °F - 61 °F 31% 29.76 in 19 mi South 12.7 mph - -  
5:00 PM 87.8 °F 87.6 °F 60.8 °F 40% 29.74 in - South 12.7 mph - N/A   Clear
6:00 PM 80.6 °F 81.1 °F 59.0 °F 48% 29.74 in - SSW 13.8 mph - N/A   Clear
7:00 PM 75.2 °F - 59.0 °F 57% 29.74 in - SSW 9.2 mph - N/A   Clear
8:00 PM 71 °F - 59 °F 58% 29.75 in 19 mi SW 10.4 mph - -  
8:00 PM 71.6 °F - 59.0 °F 64% 29.74 in - SW 11.5 mph - N/A   Clear
9:00 PM 69.8 °F - 59.0 °F 68% 29.74 in - SSW 11.5 mph - N/A   Clear
10:00 PM 69.8 °F - 59.0 °F 68% 29.74 in - SW 12.7 mph - N/A   Clear
11:00 PM 72 °F - 59 °F 55% 29.75 in 25 mi SSW 10.4 mph - -  
11:00 PM 71.6 °F - 59.0 °F 64% 29.74 in - SSW 10.4 mph - N/A   Clear